Content
SEND FEEDBACK

Daily
Averages
Monthly
Summary
United States of America

CASTALIA, OHIO


Home > North America > United States > Ohio
Elevation: 589 feet     Latitude: 41 27N     Longitude: 082 43W

WEATHER
 
SELECT A DAY
Number of Records: 185,737;   Date Range: 10/8/98 - 12/24/14
 
SHARE

PRINT THIS DATA

[ ← Previous Day ]
WEATHER ALMANAC - AUGUST 14, 2013
[ Next Day → ]
[ °C ]   °F
Weather ElementAverageHighLow
Temperature61.9 °F69.1 °F (2:53 pm)53.1 °F (11:53 pm)
Dewpoint50.8 °F54 °F (7:53 pm)46 °F (1:53 am)
Humidity67.6 %90 % (10:53 pm)52 % (5:53 pm)
Barometer30.13 in30.19 in (11:53 pm)30.04 in (1:53 am)
Wind Speed6.8 mph12.7 mph (9:53 am)
Wind Gust18.4 mph (9:53 am)
Weather ElementAverage
Visibility10 mi
Wind DirectionWSW (234.3 °)

Weather ElementTotal
Precipitation---
Heating Degree Days3.9 (Base 65)
Growing Degree Days11.1 (Base 50)
Averaged from 28 records on August 14, 2013
WEATHER CONDITIONS BREAKOUT
WIND DIRECTION BREAKOUT
WEATHER BY HOUR - AUGUST 14, 2013
[ °C ]   °F
Local TimeTemperatureDewpointHumidityBarometerVisibilityWind DirectionWind SpeedGust SpeedPrecipitationEventsConditions
1:53 AM60.1 °F46.0 °F60 %30.04 in10.0 miNorth (360°)5.8 mphPartly Cloudy
2:53 AM57.9 °F46.9 °F67 %30.04 in10.0 miNorth (10°)6.9 mphClear
3:53 AM57.0 °F46.9 °F69 %30.04 in10.0 miNorth (360°)5.8 mphClear
4:53 AM57.0 °F46.9 °F69 %30.05 in10.0 miNorth (360°)6.9 mphPartly Cloudy
5:53 AM57.0 °F48.9 °F74 %30.06 in10.0 miNorth (350°)6.9 mphScattered Clouds
6:53 AM57.9 °F50.0 °F75 %30.08 in10.0 miNNW (340°)5.8 mphScattered Clouds
7:53 AM59.0 °F50.0 °F72 %30.09 in10.0 miNorth (350°)8.1 mphMostly Cloudy
8:53 AM61.0 °F51.1 °F70 %30.11 in10.0 miNorth (360°)10.4 mph16.1 mphOvercast
9:53 AM63.0 °F52.0 °F67 %30.12 in10.0 miNorth (360°)12.7 mph18.4 mphMostly Cloudy
10:48 AM62.6 °F51.8 °F68 %30.14 in10.0 miNorth (360°)10.4 mphOvercast
10:53 AM63.0 °F52.0 °F67 %30.14 in10.0 miNorth (10°)11.5 mphOvercast
11:06 AM62.6 °F53.6 °F72 %30.15 in10.0 miNorth (350°)5.8 mphOvercast
11:53 AM64.9 °F52.0 °F63 %30.16 in10.0 miNorth (10°)9.2 mphOvercast
12:35 PM64.4 °F51.8 °F64 %30.16 in10.0 miNNE (20°)10.4 mphOvercast
12:42 PM64.4 °F51.8 °F64 %30.16 in10.0 miNNE (20°)8.1 mphOvercast
12:53 PM64.0 °F52.0 °F65 %30.16 in10.0 miNorth (350°)8.1 mphOvercast
1:00 PM62.6 °F51.8 °F68 %30.16 in10.0 miNorth (360°)9.2 mphOvercast
1:53 PM66.9 °F52.0 °F59 %30.16 in10.0 miNorth (350°)9.2 mphMostly Cloudy
2:53 PM69.1 °F51.1 °F53 %30.15 in10.0 miNorth (360°)8.1 mphScattered Clouds
3:53 PM69.1 °F51.1 °F53 %30.14 in10.0 miNNW (340°)9.2 mphPartly Cloudy
4:53 PM66.9 °F50.0 °F54 %30.15 in10.0 miNorth (350°)6.9 mphMostly Cloudy
5:53 PM68.0 °F50.0 °F52 %30.15 in10.0 miNNW (340°)6.9 mphPartly Cloudy
6:53 PM68.0 °F51.1 °F55 %30.15 in10.0 miCalmPartly Cloudy
7:53 PM64.0 °F54.0 °F70 %30.15 in10.0 miCalmPartly Cloudy
8:53 PM59.0 °F53.1 °F81 %30.16 in10.0 miCalmClear
9:53 PM57.0 °F52.0 °F83 %30.17 in10.0 miCalmPartly Cloudy
10:53 PM54.0 °F51.1 °F90 %30.17 in10.0 miWSW (240°)3.5 mphClear
11:53 PM53.1 °F50.0 °F89 %30.19 in10.0 miWSW (250°)3.5 mphClear
Hourly data recorded from KLPR, located miles away from Castalia, Ohio







STORIES FROM OUR PARTNERS